Weather History for Savannah Hunter, GA

Change the Weather History Date:

Monday, February 3, 2014

  Actual Average Record
Temperature  
Mean Temperature 70 °F -  
Max Temperature 81 °F 60 °F 81 °F (2014)
Min Temperature 60 °F 39 °F 24 °F (2000)
Cooling Degree Days 6    
Growing Degree Days 20 (Base 50)    
Moisture  
Dew Point 64 °F    
Average Humidity 91    
Maximum Humidity 100    
Minimum Humidity 56    
Precipitation  
Precipitation 0.00 in - - ()
Sea Level Pressure  
Sea Level Pressure 30.03 in    
Wind  
Wind Speed 8 mph (SSW)    
Max Wind Speed 17 mph    
Max Gust Speed 22 mph    
Visibility 7 miles    
Events      
Averages and records for this station are not official NWS values.
T = Trace of Precipitation, MM = Missing Value Source: NWS Daily Summary

Daily Weather History Graph

Daily Weather History Graph

Search for Another Location

Airport:

Trip Planner

Search our weather history database for the weather conditions in past years. The results will help you decide how hot, cold, wet, or windy it might be!

Date:

Astronomy

Feb. 03, 2014 Rise Set
Actual Time 7:16 AM EST 6:00 PM EST
Civil Twilight 6:51 AM EST 6:25 PM EST
Nautical Twilight 6:22 AM EST 6:55 PM EST
Astronomical Twilight 5:53 AM EST 7:23 PM EST
Moon 9:36 AM EST (2/3) 10:28 PM EST (2/3)
Length of Visible Light 11h 34m
Length of Day
10h 43m
Waxing Crescent, 19% of the Moon is Illuminated
Feb 3
Waxing Crescent
Feb 6
First Quarter
Feb 14
Full
Feb 22
Last Quarter
Mar 1
New

Hourly Weather History & Observations

Time (EST) Temp. Heat Index Dew Point Humidity Pressure Visibility Wind Dir Wind Speed Gust Speed Precip Events Conditions
12:33 AM 60.8 °F - 60.8 °F 100% 30.04 in 1.2 mi South 6.9 mph - N/A   Overcast
12:38 AM 60.8 °F - 60.8 °F 100% 30.04 in 2.0 mi South 8.1 mph - N/A   Overcast
12:48 AM 60.8 °F - 60.8 °F 100% 30.04 in 3.0 mi South 9.2 mph - N/A   Overcast
12:58 AM 61.7 °F - 61.7 °F 100% 30.05 in 3.0 mi South 9.2 mph - N/A   Overcast
1:08 AM 62.6 °F - 62.6 °F 100% 30.03 in 2.5 mi SSW 8.1 mph - N/A   Overcast
1:18 AM 62.6 °F - 62.6 °F 100% 30.03 in 1.8 mi SSW 9.2 mph - N/A   Overcast
1:28 AM 62.6 °F - 62.6 °F 100% 30.03 in 1.0 mi SSW 8.1 mph - N/A   Mist
1:38 AM 62.6 °F - 62.6 °F 100% 30.03 in 1.2 mi South 8.1 mph - N/A   Overcast
1:58 AM 63.5 °F - 63.5 °F 100% 30.04 in 1.8 mi South 6.9 mph - N/A   Overcast
2:03 AM 64.4 °F - 64.4 °F 100% 30.03 in 2.0 mi South 8.1 mph - N/A   Overcast
2:18 AM 64.4 °F - 64.4 °F 100% 30.02 in 3.0 mi SSW 5.8 mph - N/A   Overcast
2:58 AM 64.9 °F - 64.9 °F 100% 30.03 in 4.0 mi SSW 6.9 mph - N/A   Overcast
3:08 AM 64.4 °F - 64.4 °F 100% 30.02 in 5.0 mi SSW 6.9 mph - N/A   Overcast
3:28 AM 64.4 °F - 64.4 °F 100% 30.01 in 6.0 mi SSW 6.9 mph - N/A   Overcast
3:33 AM 64.4 °F - 64.4 °F 100% 30.01 in 6.0 mi SSW 5.8 mph - N/A   Overcast
3:58 AM 64.9 °F - 64.9 °F 100% 30.02 in 6.0 mi South 8.1 mph - N/A   Overcast
4:13 AM 66.2 °F - 66.2 °F 100% 30.01 in 5.0 mi SSW 6.9 mph - N/A   Overcast
4:48 AM 66.2 °F - 66.2 °F 100% 30.01 in 6.0 mi South 6.9 mph - N/A   Overcast
4:58 AM 66.0 °F - 66.0 °F 100% 30.02 in 8.0 mi SSW 8.1 mph - N/A   Overcast
5:33 AM 66.2 °F - 66.2 °F 100% 30.01 in 9.0 mi SSW 10.4 mph - N/A   Overcast
5:38 AM 66.2 °F - 66.2 °F 100% 30.01 in 10.0 mi SSW 10.4 mph - N/A   Overcast
5:48 AM 66.2 °F - 66.2 °F 100% 30.02 in 10.0 mi SSW 8.1 mph - N/A   Overcast
5:58 AM 66.2 °F - 66.2 °F 100% 30.03 in 10.0 mi SSW 9.2 mph - N/A   Overcast
6:28 AM 66.2 °F - 66.2 °F 100% 30.02 in 10.0 mi South 10.4 mph - N/A   Overcast
6:58 AM 66.7 °F - 66.7 °F 100% 30.03 in 10.0 mi South 10.4 mph - N/A   Overcast
7:53 AM 66.2 °F - 66.2 °F 100% 30.03 in 10.0 mi South 8.1 mph - N/A   Scattered Clouds
7:58 AM 66.2 °F - 66.2 °F 100% 30.04 in 10.0 mi South 6.9 mph - N/A   Scattered Clouds
8:23 AM 66.2 °F - 66.2 °F 100% 30.04 in 10.0 mi SSW 6.9 mph - N/A   Mostly Cloudy
8:58 AM 68.0 °F - 66.2 °F 94% 30.06 in 10.0 mi SSW 6.9 mph - N/A   Overcast
9:38 AM 69.8 °F - 66.2 °F 88% 30.05 in 10.0 mi SSW 8.1 mph - N/A   Mostly Cloudy
9:48 AM 69.8 °F - 66.2 °F 88% 30.05 in 10.0 mi SSW 8.1 mph - N/A   Scattered Clouds
9:58 AM 70.7 °F - 66.4 °F 86% 30.06 in 10.0 mi SW 11.5 mph - N/A   Partly Cloudy
10:58 AM 76.1 °F - 65.1 °F 69% 30.05 in 10.0 mi SW 17.3 mph 21.9 mph N/A   Clear
11:58 AM 79.0 °F - 64.0 °F 60% 30.03 in 10.0 mi SW 12.7 mph - N/A   Partly Cloudy
12:58 PM 81.0 °F 82.5 °F 63.7 °F 56% 30.01 in 10.0 mi WSW 13.8 mph 19.6 mph N/A   Partly Cloudy
1:58 PM 79.5 °F - 62.8 °F 56% 30.00 in 10.0 mi WSW 15.0 mph - N/A   Partly Cloudy
2:58 PM 79.7 °F - 63.0 °F 56% 29.99 in 10.0 mi West 11.5 mph - N/A   Partly Cloudy
3:58 PM 78.8 °F - 63.1 °F 59% 30.00 in 10.0 mi WSW 9.2 mph - N/A   Partly Cloudy
4:58 PM 75.2 °F - 63.9 °F 68% 30.02 in 10.0 mi Variable 4.6 mph - N/A   Mostly Cloudy
5:58 PM 72.5 °F - 63.1 °F 72% 30.03 in 10.0 mi East 1.2 mph - N/A   Overcast
6:58 PM 70.7 °F - 63.7 °F 78% 30.06 in 10.0 mi NNW 2.3 mph - N/A   Overcast
7:58 PM 70.3 °F - 63.3 °F 78% 30.07 in 10.0 mi North 1.2 mph - N/A   Scattered Clouds
8:58 PM 67.6 °F - 61.9 °F 82% 30.08 in 10.0 mi East 1.2 mph - N/A   Partly Cloudy
9:58 PM 64.4 °F - 61.9 °F 92% 30.09 in 10.0 mi Calm Calm - N/A   Clear
10:58 PM 66.0 °F - 62.4 °F 88% 30.10 in 10.0 mi North 2.3 mph - N/A   Partly Cloudy
11:58 PM 61.5 °F - 60.4 °F 96% 30.10 in 10.0 mi Calm Calm - N/A   Clear